Greenville, SC

10:20 PM EDT on March 23, 2017 (GMT -0400)
Donaldson Center

Weather History for KGYH - March, 2013

Change the Weather History Date:

Friday, March 1, 2013

  Actual Average (KGMU) Record (KGMU)
Temperature  
Mean Temperature 40 °F -  
Max Temperature 51 °F 57 °F 79 °F (2012)
Min Temperature 28 °F 38 °F 28 °F (1993)
Degree Days  
Heating Degree Days 26    
Moisture  
Dew Point 27 °F    
Average Humidity 67    
Maximum Humidity 93    
Minimum Humidity 37    
Precipitation  
Precipitation 0.00 in - - ()
Sea Level Pressure  
Sea Level Pressure 29.90 in    
Wind  
Wind Speed 2 mph (WNW)    
Max Wind Speed 7 mph    
Max Gust Speed -    
Visibility 10 miles    
Events      
Averages and records for this station are not official NWS values.
T = Trace of Precipitation, MM = Missing Value Source: NWS Daily Summary

Daily Weather History Graph

Daily Weather History Graph

Search for Another Location

Airport or City:

Trip Planner

Search our weather history database for the weather conditions in past years. The results will help you decide how hot, cold, wet, or windy it might be!

Date:

Astronomy

Mar. 01, 2013 Rise Set
Actual Time 6:58 AM EST 6:25 PM EST
Civil Twilight 6:33 AM EST 6:50 PM EST
Nautical Twilight 6:03 AM EST 7:20 PM EST
Astronomical Twilight 5:34 AM EST 7:49 PM EST
Moon 10:44 PM EST (3/1) 8:56 AM EST (3/1)
Length of Visible Light 12h 17m
Length of Day
11h 27m
Waning Gibbous, 83% of the Moon is Illuminated
Mar 1
Waning Gibbous
Mar 4
Last Quarter
Mar 11
New
Mar 19
First Quarter
Mar 27
Full

Hourly Weather History & Observations

Time (EST) Temp. Windchill Dew Point Humidity Pressure Visibility Wind Dir Wind Speed Gust Speed Precip Events Conditions
12:15 AM 32.0 °F 28.7 °F 26.6 °F 80% 29.90 in 10.0 mi West 3.5 mph - N/A   Clear
12:35 AM 32.0 °F - 26.6 °F 80% 29.90 in 10.0 mi Calm Calm - N/A   Clear
12:55 AM 32.0 °F 28.7 °F 26.6 °F 80% 29.90 in 10.0 mi WNW 3.5 mph - N/A   Clear
1:15 AM 32.0 °F - 26.6 °F 80% 29.90 in 10.0 mi Calm Calm - N/A   Clear
1:35 AM 28.4 °F - 24.8 °F 86% 29.90 in 10.0 mi Calm Calm - N/A   Clear
1:55 AM 32.0 °F - 26.6 °F 80% 29.90 in 10.0 mi Calm Calm - N/A   Clear
2:15 AM 32.0 °F - 26.6 °F 80% 29.90 in 10.0 mi Calm Calm - N/A   Clear
2:35 AM 32.0 °F - 26.6 °F 80% 29.89 in 10.0 mi Calm Calm - N/A   Clear
2:55 AM 32.0 °F - 26.6 °F 80% 29.89 in 10.0 mi Calm Calm - N/A   Clear
3:15 AM 30.2 °F - 26.6 °F 86% 29.88 in 10.0 mi Calm Calm - N/A   Clear
3:35 AM 28.4 °F - 23.0 °F 80% 29.89 in 10.0 mi Calm Calm - N/A   Clear
4:15 AM 30.2 °F 25.4 °F 26.6 °F 86% 29.90 in 10.0 mi West 4.6 mph - N/A   Clear
4:35 AM 28.4 °F 23.3 °F 26.6 °F 93% 29.91 in 10.0 mi West 4.6 mph - N/A   Clear
4:55 AM 30.2 °F 25.4 °F 26.6 °F 86% 29.92 in 10.0 mi WSW 4.6 mph - N/A   Clear
5:15 AM 30.2 °F 26.7 °F 26.6 °F 86% 29.92 in 10.0 mi West 3.5 mph - N/A   Clear
5:35 AM 30.2 °F 26.7 °F 26.6 °F 86% 29.92 in 10.0 mi West 3.5 mph - N/A   Clear
6:47 AM 30.2 °F 26.7 °F 24.8 °F 80% 29.93 in 10.0 mi WSW 3.5 mph - N/A   Clear
10:47 AM 42.8 °F 39.3 °F 26.6 °F 53% 29.94 in 10.0 mi West 5.8 mph - N/A   Mostly Cloudy
1:47 PM 50.0 °F - 24.8 °F 37% 29.87 in 10.0 mi Calm Calm - N/A   Mostly Cloudy
2:47 PM 51.8 °F - 26.6 °F 38% 29.86 in 10.0 mi West 3.5 mph - N/A   Mostly Cloudy
3:47 PM 50.0 °F - 26.6 °F 40% 29.85 in 10.0 mi West 3.5 mph - N/A   Mostly Cloudy
4:47 PM 50.0 °F - 26.6 °F 40% 29.85 in 10.0 mi Calm Calm - N/A   Mostly Cloudy
5:47 PM 48.2 °F - 26.6 °F 43% 29.86 in 10.0 mi ENE 4.6 mph - N/A   Mostly Cloudy
6:47 PM 46.4 °F 45.2 °F 28.4 °F 50% 29.88 in 10.0 mi North 3.5 mph - N/A   Mostly Cloudy
7:47 PM 46.4 °F - 28.4 °F 50% 29.90 in 10.0 mi Calm Calm - N/A   Overcast
8:15 PM 42.8 °F 41.1 °F 30.2 °F 61% 29.91 in 10.0 mi WNW 3.5 mph - N/A   Overcast
8:35 PM 44.6 °F 41.4 °F 28.4 °F 53% 29.91 in 10.0 mi East 5.8 mph - N/A   Overcast
8:47 PM 44.6 °F 42.2 °F - N/A% 29.91 in 10.0 mi NE 4.6 mph - N/A   Overcast
8:55 PM 42.8 °F 38.6 °F 28.4 °F 57% 29.91 in 10.0 mi ENE 6.9 mph - N/A   Overcast
9:15 PM 42.8 °F 39.3 °F 28.4 °F 57% 29.91 in 10.0 mi East 5.8 mph - N/A   Overcast
9:35 PM 42.8 °F 41.1 °F 30.2 °F 61% 29.92 in 10.0 mi South 3.5 mph - N/A   Overcast
9:55 PM 41.0 °F - 30.2 °F 65% 29.92 in 10.0 mi Calm Calm - N/A   Mostly Cloudy
10:15 PM 41.0 °F - 32.0 °F 70% 29.92 in 10.0 mi Calm Calm - N/A   Overcast
10:35 PM 42.8 °F - 28.4 °F 57% 29.91 in 10.0 mi Calm Calm - N/A   Overcast
10:55 PM 42.8 °F - 28.4 °F 57% 29.91 in 10.0 mi Calm Calm - N/A   Overcast
11:15 PM 42.8 °F 40.1 °F 28.4 °F 57% 29.91 in 10.0 mi NE 4.6 mph - N/A   Overcast
11:35 PM 41.0 °F - 30.2 °F 65% 29.91 in 10.0 mi Calm Calm - N/A   Overcast
11:55 PM 41.0 °F - 30.2 °F 65% 29.90 in 10.0 mi Calm Calm - N/A   Overcast